#timestamp,LO_Frequency,Hit,StdDev 
1502024415.1,286046998.1,N,1.5
1502024416.0,286046998.1,N,1.5
1502024435.8,286046999.3,N,1.5
1502024455.6,286046997.2,N,1.6
1502024475.5,286046997.1,N,1.7
1502024495.3,286046997.8,N,1.7
1502024515.1,286046997.9,N,1.8
1502024535.9,286046995.0,N,2.0
1502024555.7,286046995.1,N,2.2
1502024575.6,286046995.5,N,2.2
1502024595.4,286046996.0,N,2.3
1502024615.2,286046993.3,N,2.6
1502024635.1,286046995.5,N,2.6
1502024636.0,286046995.5,N,2.6
1502024655.8,286046995.9,N,2.6
1502024675.7,286046993.6,N,2.7
1502024695.5,286046993.5,N,2.7
1502024715.3,286046993.9,N,2.7
1502024735.2,286046993.9,N,2.8
1502024755.0,286046994.3,N,2.8
1502024755.9,286046994.3,N,2.8
1502024775.8,286046994.2,N,2.8
1502024795.6,286046993.9,N,2.7
1502024815.4,286046994.0,N,2.5
1502024835.3,286046994.4,N,2.2
1502024855.1,286046994.6,N,2.1
1502024875.9,286046994.6,N,2.1
1502024895.7,286046994.7,N,1.9
1502024915.5,286046994.1,Y,0.0
1502024935.4,286046999.2,P,1.8
1502024955.2,286046998.7,N,1.6
1502024975.1,286046996.8,N,1.4
1502024976.0,286046996.8,N,1.3
1502024995.8,286046996.5,N,1.3
1502025015.6,286046997.7,N,1.2
1502025035.5,286046997.7,N,1.1
1502025055.3,286046996.8,N,1.1
1502025075.2,286046995.2,Y,0.0
1502025095.9,286046999.5,P,1.1
1502025115.7,286046998.2,N,0.9
1502025135.6,286046998.2,N,0.8
1502025155.4,286046998.8,N,0.7
1502025175.3,286046998.9,N,0.7
1502025195.1,286046998.9,N,0.7
1502025196.0,286046998.9,N,0.6
1502025215.8,286046998.5,N,0.6
1502025235.7,286046999.4,N,0.6
1502025255.5,286046999.3,N,0.6
1502025275.4,286046998.6,N,0.6
1502025295.2,286046998.1,Y,0.0
1502025315.0,286047000.1,P,0.7
1502025315.9,286047000.1,N,0.7
1502025335.8,286047000.8,N,0.8
1502025355.6,286047000.5,N,0.7
1502025375.5,286047000.8,N,0.7
1502025395.3,286046998.2,N,1.0
1502025415.1,286046998.6,N,1.0
1502025435.9,286047001.1,N,1.0
1502025455.7,286046998.4,N,1.1
1502025475.6,286047001.2,N,1.1
1502025495.4,286047000.9,N,1.1
1502025515.2,286047000.6,N,1.1
1502025535.1,286047001.0,N,1.1
1502025536.0,286047001.0,N,1.0
1502025555.8,286047000.7,N,1.0
1502025575.7,286046999.1,N,1.0
1502025595.5,286046998.6,N,1.1
1502025615.3,286047001.0,N,1.1
1502025635.2,286047001.0,N,1.0
1502025655.0,286047001.0,N,1.0
1502025655.9,286047001.0,N,1.0
1502025675.8,286046998.7,N,1.0
1502025695.6,286046998.4,N,1.1
1502025715.4,286046998.7,N,1.1
1502025735.3,286046998.8,N,1.1
1502025755.1,286046999.3,N,1.1
1502025775.9,286046998.8,N,1.1
1502025795.7,286046998.4,N,1.1
1502025815.5,286046998.8,N,1.1
1502025835.4,286047001.2,N,1.1
1502025855.2,286046999.3,N,1.1
1502025875.1,286046998.8,N,1.1
1502025876.0,286046998.8,N,1.1
1502025895.8,286046998.8,N,1.1
1502025915.6,286046999.1,N,1.1
1502025935.5,286046998.7,N,1.1
1502025955.3,286046998.2,N,1.1
1502025975.2,286046999.0,N,1.1
1502025995.9,286046998.9,N,1.1
1502026015.7,286046998.8,N,1.0
1502026035.6,286046999.0,N,1.0
1502026055.4,286046998.5,N,1.0
1502026075.2,286046998.9,N,1.0
1502026095.1,286046998.9,N,0.9
1502026096.0,286046998.9,N,0.9
1502026115.8,286046999.6,N,0.9
1502026135.7,286046999.0,N,0.9
1502026155.5,286046998.9,N,0.8
1502026175.4,286046998.8,N,0.7
1502026195.2,286046999.3,N,0.6
1502026215.0,286046999.2,N,0.5
1502026215.9,286046999.2,N,0.5
1502026235.8,286046999.4,N,0.5
1502026255.6,286047000.7,N,0.6
1502026275.5,286046998.2,Y,0.0
1502026295.3,286047000.4,P,0.7
1502026315.1,286047000.5,N,0.7
1502026335.9,286046999.8,N,0.6
1502026355.7,286047002.2,Y,0.0
1502026375.5,286047002.6,P,1.3
1502026395.4,286047002.4,N,1.2
1502026415.2,286047002.5,N,1.1
1502026435.1,286047000.1,N,1.2
1502026436.0,286047000.1,N,1.2
1502026455.8,286047002.6,N,1.2
1502026475.6,286046999.7,N,1.3
1502026495.5,286047002.3,N,1.3
1502026515.3,286047002.3,N,1.2
1502026535.2,286047002.1,N,1.2
1502026555.9,286047001.5,N,1.1
1502026575.7,286047001.8,N,1.1
1502026595.6,286047002.1,N,1.1
1502026615.4,286047001.7,N,1.0
1502026635.3,286047001.8,N,1.0
1502026655.1,286047003.9,Y,0.0
1502026656.0,286047003.9,P,1.2
1502026675.8,286047002.3,N,1.0
1502026695.7,286047000.1,N,1.4
1502026715.5,286047002.3,N,1.2
1502026735.4,286047002.7,N,1.1
1502026755.2,286047002.5,N,1.1
1502026775.0,286046999.8,N,1.3
1502026775.9,286046999.8,N,1.4
1502026795.8,286047000.1,N,1.4
1502026815.6,286047002.4,N,1.3
1502026835.4,286047002.5,N,1.3
1502026855.3,286047001.9,N,1.3
1502026875.1,286047002.7,N,1.2
1502026895.9,286047002.2,N,1.2
1502026915.7,286047002.1,N,1.2
1502026935.5,286047001.9,N,1.1
1502026955.4,286047002.7,N,1.1
1502026975.2,286047002.0,N,1.1
1502026995.1,286047001.6,N,1.1
1502026996.0,286047001.6,N,1.0
1502027015.8,286047004.4,Y,0.0
1502027035.6,286047002.7,P,0.4
1502027055.5,286047002.1,P,0.4
1502027075.3,286047002.7,P,0.4
1502027095.2,286047002.8,Y,0.0
1502027115.9,286046998.7,P,1.8
1502027135.7,286046999.0,N,1.6
1502027155.6,286046998.7,N,1.5
1502027175.4,286046998.9,N,1.4
1502027195.3,286046999.3,N,1.3
1502027215.1,286046998.8,N,1.2
1502027235.8,286047001.2,N,1.3
1502027255.7,286047000.0,N,1.2
1502027275.5,286047001.1,N,1.2
1502027295.4,286047000.4,N,1.2
1502027315.2,286046998.6,N,1.2
1502027335.0,286047000.8,N,1.2
1502027335.9,286047000.8,N,1.2
1502027355.8,286046998.8,N,1.2
1502027375.6,286046998.3,N,1.2
1502027395.5,286047000.5,N,1.2
1502027415.3,286047001.0,N,1.2
1502027435.1,286046999.9,N,1.1
1502027455.9,286047000.9,N,1.1
1502027475.7,286047000.8,N,1.1
1502027495.6,286047004.2,Y,0.0
1502027515.4,286047010.6,P,5.3
1502027535.2,286047008.2,N,4.6
1502027555.1,286047009.1,N,4.1
1502027556.0,286047009.1,N,3.8
1502027575.8,286047005.8,N,3.5
1502027595.6,286047005.7,N,3.3
1502027615.5,286047003.6,N,3.3
1502027635.3,286047002.1,N,3.4
1502027655.2,286047000.2,N,3.7
1502027675.9,286047002.6,N,3.6
1502027695.7,286047002.1,N,3.5
1502027715.6,286047001.5,N,3.5
1502027735.4,286047001.9,N,3.5
1502027755.3,286047000.1,N,3.5
1502027775.1,286047000.2,N,3.5
1502027776.0,286047000.2,N,3.5
1502027795.8,286047002.2,N,3.5
1502027815.7,286047001.5,N,3.4
1502027835.5,286047004.2,N,3.3
1502027855.4,286047001.5,N,3.3
1502027875.2,286047003.5,N,3.2
1502027895.0,286047005.4,N,3.1
1502027895.9,286047005.4,N,3.1
1502027915.8,286047003.5,N,3.0
1502027935.6,286047002.5,N,3.0
1502027955.4,286047000.3,N,3.0
1502027975.3,286047000.5,N,3.0
1502027995.1,286047000.7,N,3.0
